Cedar, IA

2:26 AM CST on February 09, 2016 (GMT -0600)
Oskaloosa Municipal

Weather History for KOOA - October, 2013

Change the Weather History Date:

Thursday, October 24, 2013

  Actual Average (KOTM) Record (KOTM)
Temperature  
Mean Temperature 35 °F 50 °F  
Max Temperature 42 °F 60 °F 85 °F (1940)
Min Temperature 28 °F 39 °F 20 °F (2006)
Degree Days  
Heating Degree Days 30 16  
Month to date heating degree days 283  
Since 1 July heating degree days 404  
Cooling Degree Days 0 0  
Month to date cooling degree days 9  
Year to date cooling degree days 936  
Moisture  
Dew Point 24 °F    
Average Humidity 66    
Maximum Humidity 86    
Minimum Humidity 43    
Precipitation  
Precipitation 0.00 in 0.09 in 1.05 in (1967)
Month to date precipitation 2.21  
Year to date precipitation 32.70  
Sea Level Pressure  
Sea Level Pressure 30.27 in    
Wind  
Wind Speed 10 mph (NW)    
Max Wind Speed 21 mph    
Max Gust Speed 25 mph    
Visibility 10 miles    
Events      
T = Trace of Precipitation, MM = Missing Value Source: NWS Daily Summary

Daily Weather History Graph

Daily Weather History Graph

Search for Another Location

Airport or City:

Trip Planner

Search our weather history database for the weather conditions in past years. The results will help you decide how hot, cold, wet, or windy it might be!

Date:

Astronomy

Oct. 24, 2013 Rise Set
Actual Time 7:32 AM CDT 6:15 PM CDT
Civil Twilight 7:03 AM CDT 6:43 PM CDT
Nautical Twilight 6:31 AM CDT 7:15 PM CDT
Astronomical Twilight 5:59 AM CDT 7:47 PM CDT
Moon 10:39 PM CDT (10/24) 12:34 PM CDT (10/24)
Length of Visible Light 11h 39m
Length of Day
10h 43m
Waning Gibbous, 71% of the Moon is Illuminated
Oct 24
Waning Gibbous
Oct 26
Last Quarter
Nov 3
New
Nov 9
First Quarter
Nov 17
Full

Hourly Weather History & Observations

Time (CDT) Temp. Windchill Dew Point Humidity Pressure Visibility Wind Dir Wind Speed Gust Speed Precip Events Conditions
12:15 AM 35.8 °F 30.9 °F 29.3 °F 77% 30.13 in 10.0 mi NW 5.8 mph - N/A   Overcast
12:35 AM 35.6 °F 29.2 °F 28.0 °F 74% 30.13 in 10.0 mi NW 8.1 mph - N/A   Overcast
12:55 AM 35.8 °F 28.3 °F 26.6 °F 69% 30.14 in 10.0 mi NW 10.4 mph 16.1 mph N/A   Overcast
1:15 AM 35.6 °F 28.6 °F 26.6 °F 70% 30.14 in 10.0 mi NW 9.2 mph - N/A   Overcast
1:35 AM 35.1 °F 28.6 °F 26.4 °F 71% 30.14 in 10.0 mi NW 8.1 mph - N/A   Overcast
1:55 AM 34.7 °F 29.6 °F 25.9 °F 70% 30.14 in 10.0 mi NW 5.8 mph - N/A   Overcast
2:15 AM 34.7 °F 28.1 °F 26.4 °F 72% 30.15 in 10.0 mi WNW 8.1 mph - N/A   Overcast
2:35 AM 34.9 °F 28.3 °F 26.1 °F 70% 30.15 in 10.0 mi NW 8.1 mph - N/A   Overcast
2:55 AM 34.2 °F 27.5 °F 26.4 °F 73% 30.15 in 10.0 mi WNW 8.1 mph - N/A   Overcast
3:15 AM 32.0 °F 25.6 °F 26.2 °F 79% 30.15 in 10.0 mi WNW 6.9 mph - N/A   Mostly Cloudy
3:35 AM 30.6 °F 23.1 °F 25.7 °F 82% 30.15 in 10.0 mi WNW 8.1 mph - N/A   Mostly Cloudy
3:55 AM 30.9 °F 24.3 °F 25.7 °F 81% 30.15 in 10.0 mi WNW 6.9 mph - N/A   Overcast
4:15 AM 32.7 °F 23.4 °F 26.2 °F 77% 30.16 in 10.0 mi WNW 12.7 mph - N/A   Overcast
4:35 AM 33.8 °F 24.8 °F 25.5 °F 72% 30.16 in 10.0 mi NW 12.7 mph 18.4 mph N/A   Overcast
4:55 AM 33.6 °F 24.6 °F 24.8 °F 70% 30.17 in 10.0 mi NW 12.7 mph 19.6 mph N/A   Mostly Cloudy
5:15 AM 32.0 °F 23.6 °F 24.6 °F 74% 30.18 in 10.0 mi NW 10.4 mph - N/A   Scattered Clouds
5:35 AM 32.0 °F 24.2 °F 24.6 °F 74% 30.18 in 10.0 mi NW 9.2 mph - N/A   Clear
5:55 AM 31.1 °F 23.1 °F 24.8 °F 77% 30.19 in 10.0 mi NW 9.2 mph - N/A   Clear
6:15 AM 30.9 °F 22.8 °F 24.8 °F 78% 30.20 in 10.0 mi NW 9.2 mph - N/A   Clear
6:35 AM 30.6 °F 22.4 °F 24.8 °F 79% 30.20 in 10.0 mi NW 9.2 mph - N/A   Clear
6:55 AM 30.6 °F 22.4 °F 24.8 °F 79% 30.21 in 10.0 mi NW 9.2 mph - N/A   Clear
7:15 AM 30.6 °F 22.4 °F 25.2 °F 80% 30.22 in 10.0 mi NW 9.2 mph - N/A   Scattered Clouds
7:35 AM 30.0 °F 21.7 °F 25.0 °F 82% 30.22 in 10.0 mi NW 9.2 mph - N/A   Clear
7:55 AM 29.7 °F 22.0 °F 24.8 °F 82% 30.23 in 10.0 mi NW 8.1 mph - N/A   Clear
8:15 AM 30.6 °F 21.2 °F 24.8 °F 79% 30.24 in 10.0 mi NW 11.5 mph - N/A   Clear
8:35 AM 31.6 °F 23.1 °F 24.8 °F 76% 30.25 in 10.0 mi NW 10.4 mph - N/A   Clear
8:55 AM 32.0 °F 22.1 °F 23.9 °F 72% 30.26 in 10.0 mi NNW 13.8 mph 19.6 mph N/A   Clear
9:15 AM 32.4 °F 22.1 °F 23.5 °F 70% 30.27 in 10.0 mi NW 15.0 mph 21.9 mph N/A   Clear
9:35 AM 32.9 °F 22.8 °F 23.4 °F 68% 30.28 in 10.0 mi NNW 15.0 mph 21.9 mph N/A   Clear
9:55 AM 34.2 °F 24.4 °F 23.9 °F 66% 30.29 in 10.0 mi NNW 15.0 mph - N/A   Clear
10:15 AM 35.4 °F 26.0 °F 24.1 °F 63% 30.29 in 10.0 mi NNW 15.0 mph - N/A   Clear
10:35 AM 36.5 °F 27.4 °F 23.4 °F 59% 30.30 in 10.0 mi North 15.0 mph 21.9 mph N/A   Clear
10:55 AM 37.6 °F 28.8 °F 21.6 °F 52% 30.30 in 10.0 mi North 15.0 mph - N/A   Clear
11:15 AM 37.6 °F 27.7 °F 20.7 °F 51% 30.31 in 10.0 mi North 18.4 mph - N/A   Scattered Clouds
11:35 AM 37.9 °F 28.9 °F 19.9 °F 48% 30.32 in 10.0 mi North 16.1 mph 20.7 mph N/A   Mostly Cloudy
11:55 AM 39.2 °F 29.3 °F 20.1 °F 46% 30.32 in 10.0 mi North 20.7 mph 25.3 mph N/A   Mostly Cloudy
12:15 PM 39.2 °F 30.8 °F 20.1 °F 46% 30.32 in 10.0 mi North 15.0 mph 24.2 mph N/A   Mostly Cloudy
12:35 PM 40.3 °F 32.2 °F 20.1 °F 45% 30.32 in 10.0 mi North 15.0 mph 21.9 mph N/A   Mostly Cloudy
12:55 PM 40.3 °F 31.6 °F 19.6 °F 44% 30.32 in 10.0 mi NNW 17.3 mph 25.3 mph N/A   Mostly Cloudy
1:15 PM 41.0 °F 34.7 °F 20.3 °F 44% 30.32 in 10.0 mi NNW 10.4 mph 18.4 mph N/A   Overcast
1:35 PM 41.0 °F 32.5 °F 19.8 °F 43% 30.32 in 10.0 mi NNW 17.3 mph 21.9 mph N/A   Overcast
1:55 PM 41.7 °F 34.1 °F 20.5 °F 43% 30.31 in 10.0 mi NW 15.0 mph 18.4 mph N/A   Overcast
2:15 PM 41.4 °F 34.7 °F 20.3 °F 43% 30.31 in 10.0 mi NW 11.5 mph 19.6 mph N/A   Overcast
2:35 PM 42.1 °F 34.5 °F 21.4 °F 44% 30.31 in 10.0 mi WNW 15.0 mph - N/A   Overcast
2:55 PM 42.1 °F 34.9 °F 21.7 °F 44% 30.31 in 10.0 mi NW 13.8 mph - N/A   Overcast
3:15 PM 42.3 °F 36.8 °F 22.3 °F 45% 30.31 in 10.0 mi NNW 9.2 mph 17.3 mph N/A   Overcast
3:35 PM 41.9 °F 34.6 °F 23.0 °F 47% 30.31 in 10.0 mi NW 13.8 mph 18.4 mph N/A   Overcast
3:55 PM 41.9 °F 34.6 °F 23.4 °F 48% 30.31 in 10.0 mi NW 13.8 mph 18.4 mph N/A   Overcast
4:15 PM 41.9 °F 35.4 °F 23.7 °F 49% 30.31 in 10.0 mi NW 11.5 mph - N/A   Overcast
4:35 PM 42.1 °F 35.7 °F 24.6 °F 50% 30.31 in 10.0 mi NW 11.5 mph 16.1 mph N/A   Overcast
4:55 PM 42.3 °F 35.9 °F 24.6 °F 50% 30.31 in 10.0 mi NW 11.5 mph 17.3 mph N/A   Overcast
5:15 PM 42.1 °F 36.1 °F 24.3 °F 49% 30.31 in 10.0 mi NW 10.4 mph 17.3 mph N/A   Mostly Cloudy
5:35 PM 41.0 °F 35.2 °F 24.6 °F 52% 30.32 in 10.0 mi WNW 9.2 mph - N/A   Scattered Clouds
5:55 PM 40.1 °F 34.7 °F 24.8 °F 54% 30.32 in 10.0 mi NW 8.1 mph - N/A   Mostly Cloudy
6:15 PM 39.6 °F 34.7 °F 25.5 °F 57% 30.32 in 10.0 mi WNW 6.9 mph - N/A   Mostly Cloudy
6:35 PM 36.5 °F 31.8 °F 25.5 °F 64% 30.32 in 10.0 mi WNW 5.8 mph - N/A   Mostly Cloudy
6:55 PM 34.7 °F 29.6 °F 25.2 °F 68% 30.33 in 10.0 mi WNW 5.8 mph - N/A   Scattered Clouds
7:15 PM 34.5 °F 30.4 °F 25.2 °F 69% 30.34 in 10.0 mi West 4.6 mph - N/A   Scattered Clouds
7:35 PM 32.9 °F 27.5 °F 24.8 °F 72% 30.34 in 10.0 mi West 5.8 mph - N/A   Clear
7:55 PM 32.5 °F 27.1 °F 24.8 °F 73% 30.34 in 10.0 mi West 5.8 mph - N/A   Clear
8:15 PM 32.5 °F 27.1 °F 25.0 °F 74% 30.34 in 10.0 mi West 5.8 mph - N/A   Clear
8:35 PM 32.0 °F 26.4 °F 25.0 °F 75% 30.35 in 10.0 mi WSW 5.8 mph - N/A   Clear
8:55 PM 31.6 °F 27.0 °F 25.2 °F 77% 30.35 in 10.0 mi West 4.6 mph - N/A   Clear
9:15 PM 30.7 °F 24.9 °F 24.8 °F 79% 30.35 in 10.0 mi West 5.8 mph - N/A   Clear
9:35 PM 31.1 °F 25.4 °F 25.2 °F 79% 30.35 in 10.0 mi West 5.8 mph - N/A   Scattered Clouds
9:55 PM 31.1 °F 27.7 °F 25.3 °F 79% 30.36 in 10.0 mi West 3.5 mph - N/A   Scattered Clouds
10:15 PM 31.3 °F 25.6 °F 25.3 °F 79% 30.37 in 10.0 mi West 5.8 mph - N/A   Clear
10:35 PM 30.2 °F 25.4 °F 25.0 °F 81% 30.37 in 10.0 mi West 4.6 mph - N/A   Clear
10:55 PM 28.6 °F 23.5 °F 24.4 °F 84% 30.37 in 10.0 mi WSW 4.6 mph - N/A   Clear
11:15 PM 28.2 °F 23.1 °F 24.1 °F 84% 30.37 in 10.0 mi WSW 4.6 mph - N/A   Scattered Clouds
11:35 PM 28.4 °F 22.2 °F 24.4 °F 85% 30.37 in 10.0 mi SW 5.8 mph - N/A   Clear
11:55 PM 28.2 °F 21.0 °F 24.6 °F 86% 30.38 in 10.0 mi WSW 6.9 mph - N/A   Clear